Weather Roundup
Issued by NWS

Home | Current Version | Previous Version | Text Only | Print | Product List | Glossary On
Versions: 1 2 3 4 5 6 7 8 9 10 11 12 13 14 15 16 17 18 19 20 21 22 23 24 25 26 27 28 29 30 31 32 33 34 35 36 37 38 39 40 41 42 43 44 45 46 47 48 49 50
000
NZUS93 KARX 250410
HRRWXR

CURRENT HOURLY OBSERVATIONS ACROSS
MUCH OF THE UPPER MISSISSIPPI VALLEY
NATIONAL WEATHER SERVICE LA CROSSE WI
1100 PM CDT FRI OCT 24 2014


...SOUTHEAST MINNESOTA...


CITY           SKY/WX    TMP DP  RH WIND       PRES   REMARKS
ROCHESTER      FOG       51  50  96 S6        29.92R VSB 1/4
ROCHESTER/MAYO CLOUDY    54  54  99 S3        29.90S VSB 1/2
WINONA         CLOUDY    59  55  88 SW3       29.89S FOG
AUSTIN         FOG       46  46 100 S3        29.92R VSB<1/4
ALBERT LEA     CLEAR     48  48 100 SW3       29.92S FOG
DODGE CENTER   CLEAR     52  50  93 SW8       29.90S FOG
PRESTON        FOG       56  55  97 SW5       29.92R VSB 1/2
OWATONNA       CLEAR     54  48  82 S3        29.90S
FARIBAULT      CLEAR     46  45  93 CALM      29.90R FOG
$$

...ELSEWHERE IN MINNESOTA...


CITY           SKY/WX    TMP DP  RH WIND       PRES   REMARKS
MINNEAPOLIS    PTCLDY    58  50  75 SW7       29.86S
INTNL FALLS    CLEAR     53  35  50 W8        29.74R
DULUTH         MOCLDY    59  41  51 W15       29.76R
RED WING       FOG       46  46 100 CALM      29.86S VSB 1/4
REDWOOD FALLS  CLEAR     58  41  53 NW10      29.93R
MANKATO        CLEAR     55  43  62 W7        29.91R
WORTHINGTON    CLEAR     54  39  58 W9        29.98R
FAIRMONT       CLEAR     54   7  15 W7        29.93S
$$

...SOUTHWEST WISCONSIN...


CITY           SKY/WX    TMP DP  RH WIND       PRES   REMARKS
LA CROSSE      CLOUDY    59  56  89 S6        29.89S
PRAIRIE DU CHI CLOUDY    59  57  92 SW5       29.92S FOG
BOSCOBEL       MOCLDY    58  55  90 SW7       29.92F FOG
LONE ROCK      MOCLDY    60  54  80 W3        29.90F HAZE
PLATTEVILLE    CLOUDY    58  56  94 SW7       29.94S
FORT MC COY    FOG       49  48  97 CALM      29.90S VSB 1/2
VIROQUA        CLOUDY    56  56 100 SW6       29.91S
WIS DELLS      MOCLDY    56  53  89 SW5       29.89F FOG
$$

...ELSEWHERE IN WISCONSIN...


CITY           SKY/WX    TMP DP  RH WIND       PRES   REMARKS
MILWAUKEE      CLOUDY    56  50  80 S7        29.91F
MADISON        MOCLDY    55  50  83 CALM      29.90F
GREEN BAY      CLOUDY    55  51  86 S7        29.85F
EAU CLAIRE     FOG       50  49  96 SW6       29.85F VSB 1/4
BLACK RVR FLS  FOG       53  53 100 CALM      29.87F VSB 1/2
MEDFORD        CLOUDY    54  53  96 SW5       29.85F FOG
WAUSAU         CLOUDY    56  53  90 W8        29.85S
WIS RAPIDS     CLOUDY    57  55  93 SW8       29.88F
MARSHFIELD     CLOUDY    57  54  89 W10       29.86F FOG
RICE LAKE      CLOUDY    55  53  94 S3        29.86S FOG
$$

...NORTHEAST IOWA...


CITY           SKY/WX    TMP DP  RH WIND       PRES   REMARKS
DECORAH        CLOUDY    59  59 100 SW6       29.90F FOG
MASON CITY     PTCLDY    52  50  93 W9        29.96R
CHARLES CITY   FOG       54  54 100 S6        29.93F VSB<1/4
OELWEIN        FOG       59  59 100 SW9       29.95S VSB 1/4
$$

...ELSEWHERE IN IOWA...


CITY           SKY/WX    TMP DP  RH WIND       PRES   REMARKS
DES MOINES     FOG       55  54  96 W3        29.97R VSB 1/4
IOWA CITY      FOG       51  51 100 CALM      29.96S VSB 1/4
FORT DODGE     PTCLDY    52  46  82 CALM      29.98R
$$

...NORTHERN ILLINOIS...


CITY           SKY/WX    TMP DP  RH WIND       PRES   REMARKS
CHICAGO-OHARE  CLOUDY    61  47  59 SW8       29.93F
CHICAGO-MIDWAY CLOUDY    63  49  60 SW8       29.94S
MOLINE         MOCLDY    58  55  90 CALM      29.94F FOG
ROCKFORD       CLOUDY    59  48  67 SW6       29.96R
PEORIA         CLOUDY    62  51  67 S8        29.96F
$$

NOTE: "FAIR" INDICATES FEW OR NO CLOUDS BELOW 12,000 FEET WITH NO
SIGNIFICANT WEATHER AND/OR OBSTRUCTIONS TO VISIBILITY. WIND
SPEEDS ARE IN MILES-PER-HOUR.



USA.gov is the U.S. government's official web portal to all federal, state and local government web resources and services.